NORTHEAST SUFFOLK  -  Frost Advisory Frost Advisory        NORTHWEST SUFFOLK  -  Frost Advisory Frost Advisory        SOUTHEAST SUFFOLK  -  Frost Advisory Frost Advisory        SOUTHWEST SUFFOLK  -  Frost Advisory Frost Advisory      

Active alerts

Northwest Suffolk
  Details for Northwest Suffolk Frost Advisory
Southwest Suffolk
  Details for Southwest Suffolk Frost Advisory
Northeast Suffolk
  Details for Northeast Suffolk Frost Advisory
Southeast Suffolk
  Details for Southeast Suffolk Frost Advisory


WXM80 ListenWXM80 Stop

You find our weather info also at:

UK Metoffice

WeatherCloud

Weather Underground

Northeastern Weather Network

AWEKAS

Citizen Weather Observer Program (CWOP)

HAMweather, WeatherForYou, PWS Weather


Weather Underground History page Text

Daily Summary for June 23, 2016 Units:  English    Metric   Both
« Previous Day
Next Day »
Daily Weekly Monthly Yearly Custom
  High: Low: Average:
Temperature: 78.2 °F 60.5 °F 70.8 °F
Dew Point: 68.6 °F 52.9 °F 62.4 °F
Humidity: 90 % 59 % 75 %
Wind Speed: 5.2 mph 0.0 mph 0.4 mph
Wind Gust: 8.1 mph - -
Wind:- - East
Pressure: 29.90 in 29.78 in -
Precipitation: 0.00 in    
Historical Graphs
 
 
Tabular Data for June 23, 2016
Time Temperature Dew Point Pressure Wind Wind Speed Wind Gust Humidity Rainfall Rate (Hourly)
00:01 66.6 °F 57.3 °F 29.90 in Calm     72 % 0.00 in
00:06 66.3 °F 57.4 °F 29.89 in Calm     73 % 0.00 in
00:11 66.2 °F 57.3 °F 29.90 in Calm     73 % 0.00 in
00:16 66.1 °F 56.8 °F 29.89 in Calm     72 % 0.00 in
00:21 65.9 °F 56.6 °F 29.90 in Calm     72 % 0.00 in
00:26 65.7 °F 56.4 °F 29.90 in Calm     72 % 0.00 in
00:32 65.5 °F 56.2 °F 29.90 in Calm     72 % 0.00 in
00:37 65.3 °F 56.4 °F 29.89 in Calm     73 % 0.00 in
00:42 65.1 °F 56.6 °F 29.89 in Calm     74 % 0.00 in
00:47 64.9 °F 56.4 °F 29.89 in Calm     74 % 0.00 in
00:52 64.7 °F 56.2 °F 29.89 in Calm     74 % 0.00 in
00:57 64.6 °F 56.1 °F 29.89 in Calm     74 % 0.00 in
01:02 64.4 °F 56.3 °F 29.88 in Calm     75 % 0.00 in
01:07 64.2 °F 56.1 °F 29.88 in Calm     75 % 0.00 in
01:12 64.0 °F 55.9 °F 29.88 in Calm     75 % 0.00 in
01:17 63.9 °F 56.2 °F 29.88 in Calm     76 % 0.00 in
01:23 63.8 °F 56.1 °F 29.88 in Calm     76 % 0.00 in
01:28 63.6 °F 55.9 °F 29.88 in Calm     76 % 0.00 in
01:33 63.5 °F 55.4 °F 29.89 in Calm     75 % 0.00 in
01:38 63.4 °F 55.7 °F 29.89 in Calm     76 % 0.00 in
01:43 63.3 °F 55.6 °F 29.88 in Calm     76 % 0.00 in
01:48 63.1 °F 55.0 °F 29.89 in Calm     75 % 0.00 in
01:53 63.1 °F 55.0 °F 29.89 in Calm     75 % 0.00 in
01:58 63.0 °F 54.9 °F 29.89 in Calm     75 % 0.00 in
02:03 62.9 °F 54.1 °F 29.90 in Calm     73 % 0.00 in
02:09 62.8 °F 54.0 °F 29.89 in Calm     73 % 0.00 in
02:14 62.8 °F 53.6 °F 29.89 in Calm     72 % 0.00 in
02:19 62.8 °F 53.3 °F 29.89 in West 0.3 mph 2.3 mph 71 % 0.00 in
02:24 62.8 °F 53.6 °F 29.89 in Calm     72 % 0.00 in
02:29 62.8 °F 53.6 °F 29.89 in West 0.1 mph 1.2 mph 72 % 0.00 in
02:34 62.8 °F 53.3 °F 29.90 in Calm     71 % 0.00 in
02:39 62.8 °F 52.9 °F 29.90 in Calm     70 % 0.00 in
02:44 62.8 °F 52.9 °F 29.90 in Calm     70 % 0.00 in
02:49 62.9 °F 53.4 °F 29.89 in Calm     71 % 0.00 in
02:54 62.9 °F 53.4 °F 29.89 in Calm     71 % 0.00 in
03:00 62.9 °F 53.7 °F 29.89 in Calm     72 % 0.00 in
03:05 63.0 °F 53.8 °F 29.89 in Calm     72 % 0.00 in
03:10 62.9 °F 53.7 °F 29.89 in Calm     72 % 0.00 in
03:15 62.9 °F 53.7 °F 29.88 in Calm     72 % 0.00 in
03:20 62.8 °F 53.6 °F 29.88 in Calm     72 % 0.00 in
03:25 62.7 °F 53.9 °F 29.88 in Calm     73 % 0.00 in
03:30 62.6 °F 53.8 °F 29.87 in Calm     73 % 0.00 in
03:35 62.4 °F 53.6 °F 29.87 in Calm     73 % 0.00 in
03:40 62.3 °F 53.5 °F 29.87 in Calm     73 % 0.00 in
03:45 62.2 °F 53.4 °F 29.87 in Calm   1.2 mph 73 % 0.00 in
03:51 62.0 °F 53.6 °F 29.87 in Calm     74 % 0.00 in
03:56 62.0 °F 53.6 °F 29.87 in Calm     74 % 0.00 in
04:01 61.8 °F 53.1 °F 29.87 in Calm     73 % 0.00 in
04:06 61.7 °F 53.3 °F 29.87 in Calm     74 % 0.00 in
04:11 61.6 °F 53.2 °F 29.86 in Calm     74 % 0.00 in
04:16 61.5 °F 53.1 °F 29.86 in Calm     74 % 0.00 in
04:21 61.4 °F 53.4 °F 29.86 in West 0.4 mph 1.2 mph 75 % 0.00 in
04:26 61.2 °F 53.2 °F 29.86 in Calm     75 % 0.00 in
04:31 61.1 °F 53.1 °F 29.86 in Calm     75 % 0.00 in
04:36 61.0 °F 53.0 °F 29.86 in Calm     75 % 0.00 in
04:42 60.9 °F 52.9 °F 29.86 in Calm     75 % 0.00 in
04:47 60.8 °F 53.2 °F 29.86 in Calm   1.2 mph 76 % 0.00 in
04:52 60.7 °F 53.4 °F 29.86 in Calm     77 % 0.00 in
04:57 60.6 °F 53.3 °F 29.86 in Calm     77 % 0.00 in
05:02 60.6 °F 54.4 °F 29.86 in West 0.2 mph 1.2 mph 80 % 0.00 in
05:07 60.5 °F 54.0 °F 29.86 in West 0.5 mph 1.2 mph 79 % 0.00 in
05:17 60.6 °F 55.7 °F 29.86 in Calm     84 % 0.00 in
05:22 60.6 °F 55.7 °F 29.87 in Calm     84 % 0.00 in
05:27 60.7 °F 56.2 °F 29.87 in Calm     85 % 0.00 in
05:33 60.8 °F 56.6 °F 29.86 in Calm     86 % 0.00 in
05:38 60.9 °F 57.0 °F 29.86 in Calm     87 % 0.00 in
05:43 61.1 °F 57.2 °F 29.86 in Calm     87 % 0.00 in
05:48 61.2 °F 57.3 °F 29.86 in Calm     87 % 0.00 in
05:53 61.2 °F 57.0 °F 29.86 in Calm     86 % 0.00 in
05:58 61.4 °F 57.5 °F 29.86 in Calm     87 % 0.00 in
06:03 61.5 °F 57.6 °F 29.86 in Calm     87 % 0.00 in
06:08 61.5 °F 57.6 °F 29.85 in Calm     87 % 0.00 in
06:18 61.8 °F 57.9 °F 29.86 in Calm     87 % 0.00 in
06:24 61.9 °F 58.0 °F 29.86 in West 0.2 mph 1.0 mph 87 % 0.00 in
06:29 62.1 °F 58.5 °F 29.85 in Calm     88 % 0.00 in
06:34 62.3 °F 58.7 °F 29.86 in Calm     88 % 0.00 in
06:39 62.5 °F 58.9 °F 29.86 in Calm     88 % 0.00 in
06:44 62.7 °F 59.4 °F 29.86 in Calm     89 % 0.00 in
06:49 62.9 °F 59.6 °F 29.86 in Calm     89 % 0.00 in
06:54 63.2 °F 60.2 °F 29.86 in Calm     90 % 0.00 in
06:59 63.8 °F 60.8 °F 29.86 in Calm     90 % 0.00 in
07:04 64.1 °F 61.1 °F 29.86 in Calm     90 % 0.00 in
07:09 64.2 °F 61.2 °F 29.86 in Calm     90 % 0.00 in
07:15 64.5 °F 61.5 °F 29.87 in Calm     90 % 0.00 in
07:20 64.8 °F 61.5 °F 29.86 in Calm     89 % 0.00 in
07:25 65.2 °F 61.9 °F 29.87 in Calm     89 % 0.00 in
07:30 65.5 °F 62.5 °F 29.87 in East 0.2 mph 1.2 mph 90 % 0.00 in
07:35 65.8 °F 62.5 °F 29.87 in East 0.1 mph 1.2 mph 89 % 0.00 in
07:40 66.1 °F 62.8 °F 29.87 in Calm     89 % 0.00 in
07:45 66.5 °F 63.2 °F 29.87 in Calm     89 % 0.00 in
07:50 67.0 °F 64.0 °F 29.86 in Calm   1.2 mph 90 % 0.00 in
07:55 67.4 °F 64.0 °F 29.87 in Calm   1.2 mph 89 % 0.00 in
08:01 68.0 °F 64.6 °F 29.87 in Calm     89 % 0.00 in
08:06 68.2 °F 64.2 °F 29.87 in Calm   1.2 mph 87 % 0.00 in
08:11 68.4 °F 64.0 °F 29.87 in East 0.2 mph 1.2 mph 86 % 0.00 in
08:16 68.8 °F 64.1 °F 29.87 in NE 0.8 mph 2.3 mph 85 % 0.00 in
08:21 69.2 °F 64.5 °F 29.86 in NE 1.3 mph 2.3 mph 85 % 0.00 in
08:26 69.5 °F 64.5 °F 29.86 in NNE 3.8 mph 5.8 mph 84 % 0.00 in
08:31 69.6 °F 64.2 °F 29.86 in NE 2.1 mph 4.6 mph 83 % 0.00 in
08:36 69.8 °F 64.7 °F 29.86 in ENE 2.7 mph 3.5 mph 84 % 0.00 in
08:41 70.0 °F 64.6 °F 29.86 in East 2.7 mph 4.6 mph 83 % 0.00 in
08:46 70.1 °F 64.7 °F 29.86 in NE 1.4 mph 2.3 mph 83 % 0.00 in
08:51 70.2 °F 64.1 °F 29.85 in NE 0.7 mph 2.3 mph 81 % 0.00 in
08:57 70.3 °F 63.8 °F 29.85 in NE 1.6 mph 3.5 mph 80 % 0.00 in
09:02 70.4 °F 64.3 °F 29.85 in ENE 0.4 mph 2.0 mph 81 % 0.00 in
09:07 70.3 °F 63.8 °F 29.86 in ENE 1.7 mph 3.5 mph 80 % 0.00 in
09:12 70.3 °F 64.2 °F 29.85 in ENE 1.3 mph 3.5 mph 81 % 0.00 in
09:22 70.5 °F 64.0 °F 29.85 in ENE 3.0 mph 5.0 mph 80 % 0.00 in
09:27 70.6 °F 64.5 °F 29.86 in ENE 0.2 mph 1.2 mph 81 % 0.00 in
09:32 70.7 °F 64.6 °F 29.86 in NE 1.4 mph 3.5 mph 81 % 0.00 in
09:37 70.8 °F 64.7 °F 29.86 in NE 1.2 mph 3.5 mph 81 % 0.00 in
09:42 71.0 °F 65.2 °F 29.86 in Calm   1.2 mph 82 % 0.00 in
09:48 71.3 °F 65.5 °F 29.86 in NE 0.2 mph 1.2 mph 82 % 0.00 in
09:53 71.6 °F 65.5 °F 29.86 in NE 1.4 mph 4.0 mph 81 % 0.00 in
09:58 71.9 °F 65.8 °F 29.85 in NE 2.0 mph 3.5 mph 81 % 0.00 in
10:03 72.2 °F 65.3 °F 29.85 in ENE 1.6 mph 2.3 mph 79 % 0.00 in
10:08 72.5 °F 65.6 °F 29.85 in ENE 0.2 mph 1.2 mph 79 % 0.00 in
10:13 72.9 °F 65.6 °F 29.85 in ENE 0.5 mph 2.3 mph 78 % 0.00 in
10:18 73.4 °F 66.5 °F 29.85 in Calm   1.2 mph 79 % 0.00 in
10:23 73.9 °F 65.9 °F 29.85 in NNE 1.2 mph 3.5 mph 76 % 0.00 in
10:28 74.3 °F 66.2 °F 29.85 in NE 1.0 mph 2.3 mph 76 % 0.00 in
10:33 74.8 °F 65.6 °F 29.85 in ENE 3.4 mph 4.0 mph 73 % 0.00 in
10:39 74.8 °F 65.6 °F 29.85 in ENE 2.2 mph 4.6 mph 73 % 0.00 in
10:44 75.2 °F 67.1 °F 29.85 in NE 1.5 mph 3.5 mph 76 % 0.00 in
10:49 75.6 °F 67.1 °F 29.85 in East 1.1 mph 2.3 mph 75 % 0.00 in
10:54 75.8 °F 66.5 °F 29.85 in ENE 1.5 mph 3.5 mph 73 % 0.00 in
10:59 75.8 °F 66.5 °F 29.84 in ENE 1.7 mph 3.5 mph 73 % 0.00 in
11:04 75.9 °F 65.8 °F 29.85 in NE 2.1 mph 4.6 mph 71 % 0.00 in
11:09 76.2 °F 65.3 °F 29.84 in NE 1.6 mph 3.5 mph 69 % 0.00 in
11:14 76.0 °F 65.1 °F 29.84 in NE 1.0 mph 2.3 mph 69 % 0.00 in
11:19 76.0 °F 65.9 °F 29.84 in NE 2.1 mph 2.3 mph 71 % 0.00 in
11:24 76.4 °F 66.3 °F 29.84 in NE 0.5 mph 1.2 mph 71 % 0.00 in
11:30 76.5 °F 65.1 °F 29.84 in ENE 1.2 mph 3.5 mph 68 % 0.00 in
11:35 76.4 °F 65.5 °F 29.84 in NNE 2.4 mph 3.5 mph 69 % 0.00 in
11:40 76.4 °F 65.9 °F 29.84 in NNE 1.2 mph 3.5 mph 70 % 0.00 in
11:45 76.4 °F 65.9 °F 29.84 in NNW 2.3 mph 3.5 mph 70 % 0.00 in
11:50 76.4 °F 66.3 °F 29.84 in NE 0.6 mph 2.3 mph 71 % 0.00 in
11:55 76.5 °F 66.4 °F 29.84 in NE 2.7 mph 5.8 mph 71 % 0.00 in
12:00 77.1 °F 66.1 °F 29.84 in North 5.2 mph 8.1 mph 69 % 0.00 in
12:05 77.7 °F 66.7 °F 29.83 in ENE 2.6 mph 3.5 mph 69 % 0.00 in
12:10 78.2 °F 66.8 °F 29.83 in NNE 2.0 mph 3.5 mph 68 % 0.00 in
12:16 78.0 °F 65.7 °F 29.83 in North 1.7 mph 3.5 mph 66 % 0.00 in
12:21 77.7 °F 65.0 °F 29.83 in NE 1.0 mph 2.3 mph 65 % 0.00 in
12:26 77.3 °F 65.5 °F 29.83 in NNE 0.8 mph 4.0 mph 67 % 0.00 in
12:31 76.8 °F 64.6 °F 29.83 in ENE 0.6 mph 3.5 mph 66 % 0.00 in
12:36 76.6 °F 65.2 °F 29.82 in NE 2.0 mph 3.5 mph 68 % 0.00 in
12:41 76.4 °F 65.5 °F 29.82 in NE 1.2 mph 2.3 mph 69 % 0.00 in
12:46 76.2 °F 64.9 °F 29.82 in NE 0.1 mph 3.5 mph 68 % 0.00 in
12:51 76.2 °F 65.7 °F 29.82 in NE 0.4 mph 2.3 mph 70 % 0.00 in
12:56 76.0 °F 65.1 °F 29.82 in NE 1.1 mph 3.5 mph 69 % 0.00 in
13:01 75.8 °F 65.3 °F 29.82 in NE 0.7 mph 1.2 mph 70 % 0.00 in
13:12 75.6 °F 65.5 °F 29.82 in ENE 0.6 mph 2.3 mph 71 % 0.00 in
13:17 75.7 °F 65.2 °F 29.82 in NE 1.2 mph 3.5 mph 70 % 0.00 in
13:22 75.7 °F 65.6 °F 29.81 in NE 0.9 mph 2.3 mph 71 % 0.00 in
13:27 75.8 °F 65.7 °F 29.81 in North 0.1 mph 3.5 mph 71 % 0.00 in
13:32 75.7 °F 65.6 °F 29.81 in ENE 1.7 mph 5.0 mph 71 % 0.00 in
13:37 75.9 °F 66.2 °F 29.81 in ENE 2.7 mph 5.0 mph 72 % 0.00 in
13:42 76.1 °F 66.0 °F 29.81 in ENE 0.9 mph 2.3 mph 71 % 0.00 in
13:47 76.1 °F 65.2 °F 29.81 in ENE 1.4 mph 3.0 mph 69 % 0.00 in
13:52 75.9 °F 65.8 °F 29.80 in ENE 2.0 mph 3.5 mph 71 % 0.00 in
13:58 76.0 °F 65.9 °F 29.80 in ENE 0.9 mph 3.5 mph 71 % 0.00 in
14:03 75.9 °F 65.8 °F 29.80 in ENE 2.1 mph 3.0 mph 71 % 0.00 in
14:08 75.7 °F 66.0 °F 29.80 in ENE 0.4 mph 3.5 mph 72 % 0.00 in
14:13 75.8 °F 65.3 °F 29.80 in ENE 0.5 mph 1.2 mph 70 % 0.00 in
14:18 75.9 °F 65.0 °F 29.80 in ENE 0.1 mph 1.2 mph 69 % 0.00 in
14:23 76.0 °F 64.7 °F 29.80 in ENE 0.9 mph 2.3 mph 68 % 0.00 in
14:28 76.2 °F 66.1 °F 29.80 in NE 0.5 mph 3.5 mph 71 % 0.00 in
14:33 76.6 °F 66.5 °F 29.80 in NE 0.6 mph 2.0 mph 71 % 0.00 in
14:38 76.6 °F 66.1 °F 29.81 in NNE 0.6 mph 3.5 mph 70 % 0.00 in
14:43 76.6 °F 64.8 °F 29.81 in Calm   1.2 mph 67 % 0.00 in
14:49 76.5 °F 65.1 °F 29.81 in ENE 0.2 mph 2.3 mph 68 % 0.00 in
14:54 76.5 °F 65.6 °F 29.81 in Calm   1.2 mph 69 % 0.00 in
14:59 76.6 °F 64.8 °F 29.81 in Calm   1.2 mph 67 % 0.00 in
15:04 76.8 °F 65.0 °F 29.80 in Calm   1.2 mph 67 % 0.00 in
15:09 76.9 °F 64.2 °F 29.81 in Calm   1.2 mph 65 % 0.00 in
15:14 77.1 °F 63.1 °F 29.81 in ENE 0.3 mph 2.3 mph 62 % 0.00 in
15:19 77.4 °F 64.7 °F 29.81 in Calm   1.2 mph 65 % 0.00 in
15:29 77.6 °F 64.5 °F 29.81 in ENE 0.2 mph 1.2 mph 64 % 0.00 in
15:34 77.5 °F 63.9 °F 29.80 in ENE 1.2 mph 2.3 mph 63 % 0.00 in
15:40 77.4 °F 63.8 °F 29.81 in NE 0.6 mph 2.3 mph 63 % 0.00 in
15:45 77.4 °F 63.8 °F 29.81 in NE 1.1 mph 3.0 mph 63 % 0.00 in
15:50 77.4 °F 63.4 °F 29.81 in NE 0.3 mph 1.2 mph 62 % 0.00 in
15:55 77.3 °F 62.3 °F 29.80 in NE 0.1 mph 2.3 mph 60 % 0.00 in
16:00 77.4 °F 63.4 °F 29.80 in North 0.3 mph 1.2 mph 62 % 0.00 in
16:05 77.4 °F 62.9 °F 29.80 in NE 1.6 mph 3.5 mph 61 % 0.00 in
16:10 77.4 °F 63.4 °F 29.80 in Calm   1.2 mph 62 % 0.00 in
16:15 77.6 °F 62.6 °F 29.80 in Calm   1.2 mph 60 % 0.00 in
16:20 77.7 °F 62.7 °F 29.80 in Calm     60 % 0.00 in
16:26 77.8 °F 63.3 °F 29.80 in NE 0.6 mph 2.3 mph 61 % 0.00 in
16:31 78.0 °F 63.0 °F 29.80 in NE 0.8 mph 2.3 mph 60 % 0.00 in
16:36 78.1 °F 62.6 °F 29.80 in NE 1.0 mph 2.3 mph 59 % 0.00 in
16:41 78.2 °F 63.2 °F 29.81 in NE 0.7 mph 3.5 mph 60 % 0.00 in
16:46 78.1 °F 63.1 °F 29.80 in NE 0.2 mph 1.2 mph 60 % 0.00 in
16:51 78.0 °F 63.5 °F 29.81 in Calm     61 % 0.00 in
16:56 78.0 °F 63.5 °F 29.81 in NE 0.2 mph 1.2 mph 61 % 0.00 in
17:01 77.9 °F 63.4 °F 29.80 in Calm     61 % 0.00 in
17:06 77.9 °F 64.3 °F 29.80 in Calm   1.2 mph 63 % 0.00 in
17:11 77.9 °F 63.8 °F 29.79 in Calm     62 % 0.00 in
17:17 78.0 °F 63.5 °F 29.79 in Calm     61 % 0.00 in
17:22 78.0 °F 63.5 °F 29.79 in Calm     61 % 0.00 in
17:27 78.0 °F 64.4 °F 29.79 in Calm   1.2 mph 63 % 0.00 in
17:32 78.0 °F 64.4 °F 29.78 in Calm     63 % 0.00 in
17:37 77.9 °F 64.3 °F 29.78 in Calm     63 % 0.00 in
17:42 77.9 °F 64.3 °F 29.78 in Calm     63 % 0.00 in
17:47 77.9 °F 63.8 °F 29.78 in NE 0.1 mph 1.0 mph 62 % 0.00 in
17:52 77.7 °F 62.7 °F 29.78 in NE 1.7 mph 3.5 mph 60 % 0.00 in
17:57 77.6 °F 63.1 °F 29.78 in Calm     61 % 0.00 in
18:02 77.6 °F 63.5 °F 29.78 in Calm     62 % 0.00 in
18:08 77.5 °F 64.8 °F 29.78 in Calm   1.2 mph 65 % 0.00 in
18:13 77.5 °F 64.8 °F 29.78 in NE 0.8 mph 2.3 mph 65 % 0.00 in
18:18 77.4 °F 64.7 °F 29.78 in NE 0.2 mph 2.3 mph 65 % 0.00 in
18:23 77.3 °F 65.9 °F 29.78 in NNE 1.4 mph 2.3 mph 68 % 0.00 in
18:28 77.2 °F 66.2 °F 29.78 in NNE 0.1 mph 1.2 mph 69 % 0.00 in
18:33 77.1 °F 67.0 °F 29.79 in NNE 0.3 mph 2.3 mph 71 % 0.00 in
18:38 76.9 °F 66.0 °F 29.79 in Calm     69 % 0.00 in
18:43 76.7 °F 65.8 °F 29.79 in Calm     69 % 0.00 in
18:48 76.6 °F 66.1 °F 29.79 in Calm     70 % 0.00 in
18:54 76.7 °F 67.0 °F 29.79 in Calm     72 % 0.00 in
18:59 76.8 °F 67.5 °F 29.78 in SE 0.2 mph 3.5 mph 73 % 0.00 in
19:04 76.9 °F 67.6 °F 29.79 in SE 0.2 mph 1.2 mph 73 % 0.00 in
19:09 77.0 °F 67.7 °F 29.79 in SSE 0.3 mph 1.2 mph 73 % 0.00 in
19:14 77.1 °F 67.8 °F 29.79 in SSE 0.3 mph 2.3 mph 73 % 0.00 in
19:19 77.1 °F 68.2 °F 29.79 in SSE 0.2 mph 2.0 mph 74 % 0.00 in
19:24 77.1 °F 68.2 °F 29.79 in SSE 0.2 mph 1.2 mph 74 % 0.00 in
19:29 77.1 °F 68.6 °F 29.80 in Calm   1.0 mph 75 % 0.00 in
19:34 77.1 °F 68.2 °F 29.80 in SE 0.6 mph 3.5 mph 74 % 0.00 in
19:39 77.1 °F 68.2 °F 29.80 in SE 0.2 mph 2.3 mph 74 % 0.00 in
19:45 77.1 °F 68.6 °F 29.80 in SE 0.1 mph 1.2 mph 75 % 0.00 in
19:50 77.0 °F 68.5 °F 29.80 in Calm   1.2 mph 75 % 0.00 in
19:55 76.9 °F 68.0 °F 29.79 in SE 0.4 mph   74 % 0.00 in
20:00 76.8 °F 68.3 °F 29.80 in Calm     75 % 0.00 in
20:05 76.7 °F 68.2 °F 29.80 in Calm   1.2 mph 75 % 0.00 in
20:10 76.5 °F 68.0 °F 29.80 in Calm     75 % 0.00 in
20:15 76.4 °F 67.9 °F 29.79 in Calm     75 % 0.00 in
20:20 76.2 °F 68.1 °F 29.79 in Calm     76 % 0.00 in
20:25 75.9 °F 67.8 °F 29.80 in Calm     76 % 0.00 in
20:30 75.7 °F 67.6 °F 29.80 in Calm     76 % 0.00 in
20:36 75.4 °F 67.7 °F 29.80 in Calm     77 % 0.00 in
20:41 75.1 °F 67.4 °F 29.80 in Calm     77 % 0.00 in
20:46 74.9 °F 67.6 °F 29.80 in SE 0.4 mph 1.2 mph 78 % 0.00 in
20:51 74.6 °F 67.7 °F 29.80 in Calm   1.0 mph 79 % 0.00 in
20:56 74.3 °F 67.4 °F 29.80 in Calm     79 % 0.00 in
21:01 74.0 °F 67.4 °F 29.81 in SE 0.1 mph 1.2 mph 80 % 0.00 in
21:06 73.7 °F 67.5 °F 29.81 in Calm     81 % 0.00 in
21:11 73.5 °F 67.3 °F 29.82 in Calm   1.0 mph 81 % 0.00 in
21:16 73.3 °F 67.1 °F 29.82 in SE 0.1 mph 1.2 mph 81 % 0.00 in
21:27 72.9 °F 66.7 °F 29.82 in Calm     81 % 0.00 in
21:32 72.7 °F 66.9 °F 29.83 in South 0.2 mph 1.2 mph 82 % 0.00 in
21:37 72.4 °F 66.9 °F 29.82 in SSE 0.6 mph 4.0 mph 83 % 0.00 in
21:42 72.1 °F 66.6 °F 29.83 in SE 0.1 mph 1.0 mph 83 % 0.00 in
21:47 71.9 °F 66.5 °F 29.83 in Calm     83 % 0.00 in
21:52 71.8 °F 66.7 °F 29.83 in SE 0.1 mph 1.2 mph 84 % 0.00 in
21:57 71.7 °F 66.6 °F 29.83 in Calm   1.2 mph 84 % 0.00 in
22:02 71.5 °F 66.4 °F 29.84 in SE 0.7 mph 2.3 mph 84 % 0.00 in
22:07 71.4 °F 66.7 °F 29.83 in Calm     85 % 0.00 in
22:12 71.3 °F 66.6 °F 29.83 in Calm     85 % 0.00 in
22:18 71.1 °F 66.4 °F 29.83 in Calm     85 % 0.00 in
22:23 71.0 °F 66.3 °F 29.84 in Calm     85 % 0.00 in
22:28 70.8 °F 66.1 °F 29.84 in Calm     85 % 0.00 in
22:38 70.4 °F 66.0 °F 29.84 in Calm     86 % 0.00 in
22:43 70.3 °F 65.9 °F 29.84 in Calm     86 % 0.00 in
22:48 70.1 °F 66.0 °F 29.84 in Calm     87 % 0.00 in
22:53 69.9 °F 65.9 °F 29.84 in Calm     87 % 0.00 in
22:58 69.7 °F 65.7 °F 29.83 in Calm     87 % 0.00 in
23:03 69.5 °F 65.8 °F 29.84 in Calm     88 % 0.00 in
23:09 69.3 °F 65.6 °F 29.84 in Calm     88 % 0.00 in
23:14 69.1 °F 65.4 °F 29.85 in Calm     88 % 0.00 in
23:19 68.9 °F 65.2 °F 29.84 in Calm     88 % 0.00 in
23:24 68.7 °F 65.0 °F 29.85 in Calm     88 % 0.00 in
23:29 68.6 °F 64.9 °F 29.85 in Calm     88 % 0.00 in
23:34 68.4 °F 65.0 °F 29.85 in SE 0.3 mph 1.2 mph 89 % 0.00 in
23:39 68.2 °F 64.8 °F 29.85 in Calm     89 % 0.00 in
23:44 68.1 °F 64.7 °F 29.85 in Calm     89 % 0.00 in
23:49 67.9 °F 64.5 °F 29.85 in Calm     89 % 0.00 in
23:54 67.8 °F 64.4 °F 29.85 in Calm     89 % 0.00 in
Crab Meadow Weather
Compliments of Weather Underground - 3 mb

Script developed by  Jim McMurry - jmcmurry@mwt.net Adapted for the template by  Wim van der Kuil - Leuven-Template.eu

Recycling: If every American home replaced just one light bulb with an ENERGY STAR qualified bulb, we would save enough energy to light more than 3 million homes for a year, more than $600 million in annual energy costs, and prevent greenhouse gases equivalent to the emissions of more than 800,000 cars.